PJT4811 MMOX-KRSW

Flight info

Callsign PJT4811
Flight time 2h 21m
Altitude 35000
Route OAX3A OAX UJ16 MID UM215 SELUL UM346 ALPUK UM219 MYDIA M219 SNAKR Y240 SHAQQ DCT FERAL
Aircraft E75S/M-SDE3GILORVW/S

Departure

Time 2026-05-04 00:28
Airport Xoxocotlán International Airport (MMOX)

Arrival

Time 2026-05-04 02:49
Airport Southwest Florida International Airport (KRSW)
Time Latitude Longitude Altitude Speed Heading
2026-05-03 23:59 17.00097 -96.72264 4992 ft 0 kts 105°
2026-05-04 00:19 17.00104 -96.72287 4992 ft 4 kts 112°
2026-05-04 00:20 17.00117 -96.72312 4992 ft 4 kts 134°
2026-05-04 00:20 17.00137 -96.72321 4992 ft 2 kts 195°
2026-05-04 00:20 17.00143 -96.72319 4992 ft 0 kts 195°
2026-05-04 00:23 17.00138 -96.72320 4992 ft 2 kts 195°
2026-05-04 00:24 17.00111 -96.72328 4992 ft 7 kts 195°
2026-05-04 00:24 17.00053 -96.72345 4992 ft 10 kts 195°
2026-05-04 00:24 16.99969 -96.72370 4992 ft 13 kts 196°
2026-05-04 00:24 16.99876 -96.72398 4992 ft 14 kts 196°
2026-05-04 00:25 16.99777 -96.72428 4992 ft 15 kts 205°
2026-05-04 00:25 16.99701 -96.72510 4988 ft 18 kts 229°
2026-05-04 00:25 16.99616 -96.72607 4990 ft 18 kts 227°
2026-05-04 00:25 16.99521 -96.72694 4990 ft 19 kts 203°
2026-05-04 00:26 16.99384 -96.72739 4994 ft 22 kts 195°
2026-05-04 00:26 16.99216 -96.72790 4994 ft 28 kts 197°
2026-05-04 00:26 16.99027 -96.72841 4992 ft 28 kts 195°
2026-05-04 00:26 16.98892 -96.72847 4991 ft 18 kts 169°
2026-05-04 00:27 16.98809 -96.72874 4989 ft 9 kts 264°
2026-05-04 00:27 16.98839 -96.72900 4989 ft 1 kts 17°
2026-05-04 00:27 16.98967 -96.72861 4991 ft 53 kts 15°
2026-05-04 00:27 16.99560 -96.72688 4990 ft 122 kts 14°
2026-05-04 00:28 17.00562 -96.72391 5085 ft 171 kts 15°
2026-05-04 00:28 17.01719 -96.72036 6046 ft 174 kts 18°
2026-05-04 00:28 17.02872 -96.71579 6815 ft 182 kts 30°
2026-05-04 00:28 17.03983 -96.70796 7193 ft 205 kts 44°
2026-05-04 00:29 17.04962 -96.69612 7631 ft 229 kts 54°
2026-05-04 00:29 17.06005 -96.68255 8195 ft 255 kts 53°
2026-05-04 00:29 17.07075 -96.66644 8674 ft 284 kts 66°
2026-05-04 00:29 17.07768 -96.64667 9598 ft 294 kts 73°
2026-05-04 00:30 17.08418 -96.62598 10543 ft 310 kts 73°
2026-05-04 00:30 17.09117 -96.60362 11114 ft 333 kts 73°
2026-05-04 00:30 17.09849 -96.58029 12056 ft 342 kts 73°
2026-05-04 00:30 17.10599 -96.55652 13011 ft 347 kts 72°
2026-05-04 00:31 17.11356 -96.53226 14046 ft 353 kts 72°
2026-05-04 00:31 17.12114 -96.50782 15138 ft 355 kts 72°
2026-05-04 00:31 17.12871 -96.48331 16225 ft 355 kts 70°
2026-05-04 00:31 17.13628 -96.45866 17223 ft 357 kts 71°
2026-05-04 00:32 17.14380 -96.43382 18125 ft 360 kts 71°
2026-05-04 00:32 17.15134 -96.40863 18853 ft 366 kts 71°
2026-05-04 00:32 17.15901 -96.38307 19512 ft 371 kts 69°
2026-05-04 00:32 17.16984 -96.35845 20094 ft 375 kts 60°
2026-05-04 00:33 17.18257 -96.33445 20716 ft 380 kts 59°
2026-05-04 00:33 17.20894 -96.28576 21919 ft 390 kts 59°
2026-05-04 00:33 17.22224 -96.26095 22516 ft 394 kts 59°
2026-05-04 00:34 17.23569 -96.23582 23111 ft 398 kts 59°
2026-05-04 00:34 17.24931 -96.21035 23685 ft 403 kts 59°
2026-05-04 00:34 17.26295 -96.18482 24148 ft 406 kts 59°
2026-05-04 00:34 17.27677 -96.15896 24607 ft 409 kts 59°
2026-05-04 00:35 17.29069 -96.13287 25054 ft 412 kts 59°
2026-05-04 00:35 17.30471 -96.10663 25489 ft 415 kts 59°
2026-05-04 00:35 17.31864 -96.08050 25775 ft 423 kts 59°
2026-05-04 00:35 17.33312 -96.05317 25930 ft 433 kts 59°
2026-05-04 00:36 17.34772 -96.02555 26432 ft 433 kts 59°
2026-05-04 00:36 17.36222 -95.99806 27050 ft 430 kts 59°
2026-05-04 00:36 17.37670 -95.97063 27650 ft 429 kts 59°
2026-05-04 00:36 17.39111 -95.94337 28187 ft 428 kts 59°
2026-05-04 00:37 17.40550 -95.91612 28696 ft 428 kts 59°
2026-05-04 00:37 17.41986 -95.88893 29249 ft 427 kts 58°
2026-05-04 00:37 17.43423 -95.86173 29803 ft 426 kts 58°
2026-05-04 00:37 17.44857 -95.83458 30354 ft 425 kts 59°
2026-05-04 00:38 17.46283 -95.80750 30839 ft 424 kts 59°
2026-05-04 00:38 17.47705 -95.78053 31281 ft 423 kts 59°
2026-05-04 00:38 17.49126 -95.75358 31748 ft 422 kts 59°
2026-05-04 00:38 17.50545 -95.72665 32210 ft 421 kts 59°
2026-05-04 00:39 17.51956 -95.69985 32629 ft 421 kts 59°
2026-05-04 00:39 17.53369 -95.67298 33011 ft 421 kts 59°
2026-05-04 00:39 17.54785 -95.64608 33414 ft 421 kts 59°
2026-05-04 00:39 17.56196 -95.61928 33854 ft 419 kts 60°
2026-05-04 00:40 17.57600 -95.59256 34206 ft 419 kts 60°
2026-05-04 00:40 17.58994 -95.56606 34470 ft 421 kts 59°
2026-05-04 00:40 17.60425 -95.53877 34719 ft 423 kts 60°
2026-05-04 00:40 17.61824 -95.51212 35047 ft 422 kts 60°
2026-05-04 00:41 17.63247 -95.48503 35190 ft 428 kts 60°
2026-05-04 00:41 17.66174 -95.42926 35100 ft 445 kts 60°
2026-05-04 00:42 17.69181 -95.37183 35048 ft 452 kts 60°
2026-05-04 00:42 17.72213 -95.31393 35032 ft 454 kts 60°
2026-05-04 00:43 17.75247 -95.25590 35028 ft 454 kts 60°
2026-05-04 00:43 17.78282 -95.19786 35029 ft 453 kts 60°
2026-05-04 00:44 17.81307 -95.13988 35022 ft 452 kts 60°
2026-05-04 00:44 17.84340 -95.08178 35028 ft 453 kts 60°
2026-05-04 00:45 17.87366 -95.02371 35025 ft 453 kts 60°
2026-05-04 00:45 17.90388 -94.96564 35031 ft 454 kts 60°
2026-05-04 00:46 17.93408 -94.90762 35024 ft 452 kts 60°
2026-05-04 00:46 17.96422 -94.84966 35031 ft 452 kts 60°
2026-05-04 00:47 17.99436 -94.79162 35027 ft 452 kts 60°
2026-05-04 00:47 18.02447 -94.73359 35027 ft 452 kts 60°
2026-05-04 00:48 18.05455 -94.67555 35029 ft 452 kts 60°
2026-05-04 00:48 18.08464 -94.61746 35029 ft 453 kts 60°
2026-05-04 00:49 18.11511 -94.55963 35036 ft 453 kts 57°
2026-05-04 00:49 18.14930 -94.50382 35020 ft 454 kts 56°
2026-05-04 00:50 18.18323 -94.44790 35024 ft 453 kts 56°
2026-05-04 00:50 18.21686 -94.39175 35026 ft 454 kts 56°
2026-05-04 00:51 18.25049 -94.33549 35026 ft 454 kts 56°
2026-05-04 00:51 18.28402 -94.27932 35022 ft 453 kts 56°
2026-05-04 00:52 18.31756 -94.22309 35022 ft 454 kts 56°
2026-05-04 00:52 18.35116 -94.16673 35027 ft 456 kts 57°
2026-05-04 00:53 18.38458 -94.11060 35020 ft 456 kts 56°
2026-05-04 00:53 18.41835 -94.05383 35019 ft 458 kts 56°
2026-05-04 00:54 18.45212 -93.99695 35019 ft 457 kts 56°
2026-05-04 00:54 18.48575 -93.94022 35021 ft 457 kts 56°
2026-05-04 00:55 18.51942 -93.88338 35020 ft 457 kts 56°
2026-05-04 00:55 18.55309 -93.82649 35020 ft 457 kts 56°
2026-05-04 00:56 18.58673 -93.76961 35018 ft 458 kts 56°
2026-05-04 00:56 18.62020 -93.71296 35016 ft 458 kts 56°
2026-05-04 00:57 18.65386 -93.65593 35017 ft 458 kts 56°
2026-05-04 00:57 18.68749 -93.59891 35018 ft 458 kts 56°
2026-05-04 00:58 18.72113 -93.54181 35017 ft 458 kts 56°
2026-05-04 00:58 18.75473 -93.48472 35015 ft 460 kts 56°
2026-05-04 00:59 18.78858 -93.42718 35011 ft 462 kts 56°
2026-05-04 00:59 18.82238 -93.36965 35016 ft 461 kts 56°
2026-05-04 01:00 18.85619 -93.31205 35015 ft 461 kts 56°
2026-05-04 01:00 18.88999 -93.25445 35014 ft 461 kts 56°
2026-05-04 01:01 18.92373 -93.19689 35012 ft 461 kts 56°
2026-05-04 01:01 18.95754 -93.13918 35012 ft 461 kts 56°
2026-05-04 01:02 18.99122 -93.08160 35013 ft 461 kts 56°
2026-05-04 01:02 19.02498 -93.02386 35012 ft 462 kts 56°
2026-05-04 01:03 19.05877 -92.96601 35010 ft 462 kts 56°
2026-05-04 01:03 19.09251 -92.90818 35011 ft 462 kts 56°
2026-05-04 01:04 19.12633 -92.85016 35008 ft 464 kts 56°
2026-05-04 01:04 19.15995 -92.79243 35006 ft 464 kts 56°
2026-05-04 01:05 19.19378 -92.73428 35010 ft 464 kts 56°
2026-05-04 01:05 19.22758 -92.67612 35009 ft 464 kts 56°
2026-05-04 01:06 19.26145 -92.61778 35007 ft 466 kts 56°
2026-05-04 01:06 19.29535 -92.55930 35007 ft 466 kts 56°
2026-05-04 01:07 19.32925 -92.50079 35010 ft 466 kts 56°
2026-05-04 01:07 19.36312 -92.44228 35009 ft 466 kts 56°
2026-05-04 01:08 19.39694 -92.38378 35009 ft 466 kts 56°
2026-05-04 01:08 19.43077 -92.32522 35008 ft 466 kts 57°
2026-05-04 01:09 19.46456 -92.26666 34999 ft 467 kts 56°
2026-05-04 01:09 19.49840 -92.20797 35004 ft 467 kts 56°
2026-05-04 01:10 19.53222 -92.14926 35008 ft 467 kts 56°
2026-05-04 01:10 19.56604 -92.09049 35006 ft 467 kts 56°
2026-05-04 01:11 19.59982 -92.03173 35006 ft 467 kts 56°
2026-05-04 01:11 19.63337 -91.97331 35006 ft 467 kts 56°
2026-05-04 01:12 19.66709 -91.91453 35006 ft 467 kts 56°
2026-05-04 01:12 19.70076 -91.85582 35007 ft 465 kts 56°
2026-05-04 01:13 19.72897 -91.80665 35007 ft 465 kts 56°
2026-05-04 01:13 19.76262 -91.74797 35005 ft 465 kts 56°
2026-05-04 01:14 19.79625 -91.68925 35015 ft 466 kts 56°
2026-05-04 01:14 19.82993 -91.63037 35006 ft 467 kts 56°
2026-05-04 01:15 19.86361 -91.57143 35006 ft 467 kts 56°
2026-05-04 01:15 19.89726 -91.51249 35002 ft 466 kts 56°
2026-05-04 01:16 19.93081 -91.45367 35012 ft 465 kts 56°
2026-05-04 01:16 19.96411 -91.39525 35009 ft 465 kts 56°
2026-05-04 01:17 19.99759 -91.33643 35003 ft 465 kts 56°
2026-05-04 01:17 20.03105 -91.27752 35004 ft 465 kts 57°
2026-05-04 01:18 20.06446 -91.21849 35001 ft 465 kts 57°
2026-05-04 01:18 20.09783 -91.15948 35005 ft 465 kts 57°
2026-05-04 01:19 20.13119 -91.10045 35007 ft 466 kts 57°
2026-05-04 01:19 20.16469 -91.04110 34999 ft 468 kts 57°
2026-05-04 01:20 20.19819 -90.98171 34999 ft 468 kts 57°
2026-05-04 01:20 20.23169 -90.92237 35007 ft 468 kts 57°
2026-05-04 01:21 20.26522 -90.86293 34996 ft 468 kts 57°
2026-05-04 01:21 20.29869 -90.80353 34994 ft 468 kts 57°
2026-05-04 01:22 20.33193 -90.74447 34987 ft 468 kts 57°
2026-05-04 01:22 20.36533 -90.68505 34993 ft 468 kts 57°
2026-05-04 01:23 20.39876 -90.62553 34992 ft 468 kts 57°
2026-05-04 01:23 20.43216 -90.56599 34989 ft 468 kts 57°
2026-05-04 01:24 20.46555 -90.50642 34986 ft 468 kts 57°
2026-05-04 01:24 20.49910 -90.44651 34993 ft 472 kts 57°
2026-05-04 01:25 20.53270 -90.38638 34989 ft 472 kts 57°
2026-05-04 01:25 20.56625 -90.32628 34994 ft 472 kts 57°
2026-05-04 01:26 20.59983 -90.26607 34991 ft 472 kts 57°
2026-05-04 01:26 20.63335 -90.20589 35000 ft 472 kts 57°
2026-05-04 01:27 20.66686 -90.14567 34996 ft 472 kts 57°
2026-05-04 01:27 20.70039 -90.08536 34995 ft 472 kts 57°
2026-05-04 01:28 20.73385 -90.02510 34994 ft 472 kts 57°
2026-05-04 01:28 20.76732 -89.96477 35001 ft 473 kts 57°
2026-05-04 01:29 20.80085 -89.90428 35002 ft 473 kts 57°
2026-05-04 01:29 20.83453 -89.84348 34999 ft 476 kts 57°
2026-05-04 01:30 20.86820 -89.78259 34997 ft 476 kts 57°
2026-05-04 01:30 20.90167 -89.72203 35001 ft 476 kts 57°
2026-05-04 01:31 20.93667 -89.66218 35010 ft 471 kts 46°
2026-05-04 01:31 20.96050 -89.63867 35024 ft 464 kts 32°
2026-05-04 01:31 20.98704 -89.61898 35051 ft 464 kts 29°
2026-05-04 01:32 21.04078 -89.58090 34979 ft 462 kts 29°
2026-05-04 01:32 21.09412 -89.54233 34999 ft 463 kts 30°
2026-05-04 01:33 21.14736 -89.50350 35023 ft 464 kts 29°
2026-05-04 01:33 21.20079 -89.46447 35011 ft 465 kts 29°
2026-05-04 01:34 21.25423 -89.42540 35010 ft 465 kts 29°
2026-05-04 01:34 21.30774 -89.38622 35019 ft 465 kts 29°
2026-05-04 01:35 21.36112 -89.34697 35018 ft 465 kts 29°
2026-05-04 01:35 21.41451 -89.30768 35021 ft 465 kts 29°
2026-05-04 01:36 21.46789 -89.26836 35020 ft 465 kts 29°
2026-05-04 01:36 21.52124 -89.22903 35014 ft 465 kts 29°
2026-05-04 01:37 21.57462 -89.18969 35024 ft 466 kts 29°
2026-05-04 01:37 21.62807 -89.15027 35020 ft 466 kts 29°
2026-05-04 01:38 21.68143 -89.11090 35015 ft 466 kts 29°
2026-05-04 01:38 21.73483 -89.07148 35021 ft 465 kts 29°
2026-05-04 01:39 21.78819 -89.03204 35023 ft 466 kts 29°
2026-05-04 01:39 21.84164 -88.99249 35020 ft 466 kts 29°
2026-05-04 01:40 21.89505 -88.95295 35025 ft 466 kts 29°
2026-05-04 01:40 21.94814 -88.91360 35028 ft 466 kts 29°
2026-05-04 01:41 22.00153 -88.87399 35028 ft 466 kts 29°
2026-05-04 01:41 22.05499 -88.83428 35029 ft 468 kts 29°
2026-05-04 01:42 22.10859 -88.79443 35030 ft 468 kts 29°
2026-05-04 01:42 22.16211 -88.75458 35019 ft 466 kts 28°
2026-05-04 01:43 22.21550 -88.71482 35031 ft 467 kts 28°
2026-05-04 01:43 22.26895 -88.67497 35026 ft 467 kts 28°
2026-05-04 01:44 22.32232 -88.63515 35035 ft 467 kts 28°
2026-05-04 01:44 22.37571 -88.59527 35030 ft 467 kts 28°
2026-05-04 01:45 22.42906 -88.55537 35031 ft 467 kts 28°
2026-05-04 01:45 22.50912 -88.49544 35039 ft 466 kts 27°
2026-05-04 01:46 22.56247 -88.45546 35034 ft 468 kts 27°
2026-05-04 01:46 22.61594 -88.41534 35034 ft 467 kts 27°
2026-05-04 01:47 22.66937 -88.37520 35039 ft 467 kts 27°
2026-05-04 01:47 22.72277 -88.33505 35038 ft 467 kts 27°
2026-05-04 01:48 22.77613 -88.29490 35054 ft 467 kts 27°
2026-05-04 01:48 22.82897 -88.25401 35045 ft 475 kts 34°
2026-05-04 01:49 22.85118 -88.22686 35065 ft 490 kts 52°
2026-05-04 01:49 22.86524 -88.19292 35068 ft 500 kts 69°
2026-05-04 01:49 22.88202 -88.11934 34996 ft 504 kts 74°
2026-05-04 01:50 22.89858 -88.04573 35038 ft 503 kts 73°
2026-05-04 01:50 22.91589 -87.97227 35032 ft 503 kts 72°
2026-05-04 01:51 22.93332 -87.89878 35034 ft 503 kts 72°
2026-05-04 01:51 22.95074 -87.82524 35034 ft 503 kts 73°
2026-05-04 01:52 22.96813 -87.75164 35034 ft 503 kts 73°
2026-05-04 01:52 22.98548 -87.67806 35030 ft 504 kts 73°
2026-05-04 01:53 23.00280 -87.60443 35030 ft 504 kts 73°
2026-05-04 01:53 23.02011 -87.53071 35030 ft 504 kts 73°
2026-05-04 01:54 23.03738 -87.45698 35032 ft 504 kts 73°
2026-05-04 01:54 23.05460 -87.38329 35037 ft 504 kts 73°
2026-05-04 01:55 23.07182 -87.30945 35035 ft 503 kts 73°
2026-05-04 01:55 23.08897 -87.23570 35032 ft 508 kts 73°
2026-05-04 01:56 23.10621 -87.16141 35030 ft 507 kts 73°
2026-05-04 01:56 23.12341 -87.08716 35037 ft 507 kts 73°
2026-05-04 01:57 23.14046 -87.01338 35036 ft 507 kts 73°
2026-05-04 01:57 23.15759 -86.93907 35033 ft 507 kts 73°
2026-05-04 01:58 23.17466 -86.86482 35036 ft 507 kts 73°
2026-05-04 01:58 23.19173 -86.79049 35036 ft 507 kts 73°
2026-05-04 01:59 23.20876 -86.71611 35036 ft 507 kts 74°
2026-05-04 01:59 23.22573 -86.64181 35036 ft 507 kts 74°
2026-05-04 02:00 23.24277 -86.56745 35038 ft 507 kts 73°
2026-05-04 02:00 23.25978 -86.49313 35039 ft 507 kts 74°
2026-05-04 02:01 23.27388 -86.43134 35035 ft 506 kts 74°
2026-05-04 02:01 23.29833 -86.36052 35030 ft 495 kts 48°
2026-05-04 02:02 23.32204 -86.33449 35063 ft 478 kts 27°
2026-05-04 02:02 23.35114 -86.31911 35085 ft 456 kts
2026-05-04 02:02 23.41273 -86.30547 34969 ft 452 kts
2026-05-04 02:03 23.47418 -86.29223 35024 ft 452 kts
2026-05-04 02:03 23.53572 -86.27786 35035 ft 452 kts
2026-05-04 02:04 23.59723 -86.26341 35044 ft 452 kts
2026-05-04 02:04 23.65880 -86.24893 35044 ft 452 kts
2026-05-04 02:05 23.72038 -86.23444 35053 ft 454 kts
2026-05-04 02:05 23.78200 -86.21996 35053 ft 453 kts
2026-05-04 02:06 23.84364 -86.20542 35050 ft 453 kts
2026-05-04 02:06 23.90488 -86.19096 35051 ft 453 kts
2026-05-04 02:07 23.96654 -86.17640 35057 ft 455 kts
2026-05-04 02:07 24.02850 -86.16148 35088 ft 460 kts
2026-05-04 02:08 24.05877 -86.14822 35076 ft 475 kts 18°
2026-05-04 02:08 24.08793 -86.13080 35088 ft 479 kts 21°
2026-05-04 02:08 24.14565 -86.09409 35054 ft 479 kts 21°
2026-05-04 02:09 24.20340 -86.05795 35061 ft 479 kts 21°
2026-05-04 02:09 24.26138 -86.02189 35064 ft 479 kts 21°
2026-05-04 02:10 24.31923 -85.98590 35064 ft 479 kts 21°
2026-05-04 02:10 24.37730 -85.94970 35061 ft 479 kts 20°
2026-05-04 02:11 24.43528 -85.91356 35067 ft 480 kts 20°
2026-05-04 02:11 24.49326 -85.87737 35075 ft 480 kts 20°
2026-05-04 02:12 24.55127 -85.84113 35074 ft 480 kts 20°
2026-05-04 02:12 24.60926 -85.80485 35074 ft 480 kts 20°
2026-05-04 02:13 24.66728 -85.76851 35075 ft 480 kts 20°
2026-05-04 02:13 24.72532 -85.73213 35077 ft 480 kts 21°
2026-05-04 02:14 24.78326 -85.69576 35077 ft 480 kts 21°
2026-05-04 02:14 24.84122 -85.65934 35077 ft 480 kts 21°
2026-05-04 02:15 24.89921 -85.62287 35079 ft 480 kts 21°
2026-05-04 02:15 24.95718 -85.58637 35100 ft 482 kts 20°
2026-05-04 02:16 25.01539 -85.54968 35079 ft 482 kts 20°
2026-05-04 02:16 25.07359 -85.51295 35080 ft 482 kts 20°
2026-05-04 02:17 25.13143 -85.47653 35088 ft 481 kts 20°
2026-05-04 02:17 25.18965 -85.44015 35082 ft 481 kts 20°
2026-05-04 02:18 25.24800 -85.40362 35085 ft 483 kts 20°
2026-05-04 02:18 25.30681 -85.36675 35077 ft 487 kts 20°
2026-05-04 02:19 25.33481 -85.34485 35090 ft 503 kts 35°
2026-05-04 02:19 25.35700 -85.31429 35105 ft 519 kts 55°
2026-05-04 02:19 25.38788 -85.24129 35084 ft 527 kts 63°
2026-05-04 02:20 25.41774 -85.16777 35066 ft 523 kts 61°
2026-05-04 02:20 25.44863 -85.09497 35072 ft 523 kts 61°
2026-05-04 02:21 25.47972 -85.02213 35066 ft 522 kts 61°
2026-05-04 02:21 25.51071 -84.94944 35082 ft 523 kts 61°
2026-05-04 02:22 25.54172 -84.87653 35079 ft 523 kts 61°
2026-05-04 02:22 25.57261 -84.80380 35070 ft 528 kts 61°
2026-05-04 02:23 25.60403 -84.72966 35078 ft 528 kts 61°
2026-05-04 02:23 25.63522 -84.65598 35061 ft 527 kts 62°
2026-05-04 02:24 25.66612 -84.58286 35080 ft 528 kts 62°
2026-05-04 02:24 25.69720 -84.50918 35071 ft 528 kts 62°
2026-05-04 02:25 25.72624 -84.43451 35098 ft 530 kts 70°
2026-05-04 02:25 25.74657 -84.35568 35055 ft 531 kts 73°
2026-05-04 02:26 25.76639 -84.27689 35059 ft 530 kts 73°
2026-05-04 02:26 25.78658 -84.19826 35077 ft 530 kts 73°
2026-05-04 02:27 25.80683 -84.11959 35071 ft 530 kts 73°
2026-05-04 02:27 25.82703 -84.04097 35078 ft 530 kts 73°
2026-05-04 02:28 25.84734 -83.96173 35071 ft 534 kts 73°
2026-05-04 02:28 25.86764 -83.88236 35077 ft 533 kts 73°
2026-05-04 02:29 25.88784 -83.80311 35072 ft 534 kts 73°
2026-05-04 02:29 25.90801 -83.72381 35072 ft 534 kts 73°
2026-05-04 02:30 25.92814 -83.64446 35071 ft 534 kts 73°
2026-05-04 02:30 25.94805 -83.56581 35057 ft 525 kts 74°
2026-05-04 02:31 25.95786 -83.52697 34980 ft 506 kts 74°
2026-05-04 02:31 25.96725 -83.49054 34913 ft 489 kts 71°
2026-05-04 02:31 25.97840 -83.45548 34837 ft 473 kts 68°
2026-05-04 02:31 25.98992 -83.42169 34677 ft 461 kts 68°
2026-05-04 02:32 26.00104 -83.38861 34426 ft 453 kts 68°
2026-05-04 02:32 26.01177 -83.35608 34009 ft 445 kts 68°
2026-05-04 02:32 26.02228 -83.32387 33443 ft 441 kts 68°
2026-05-04 02:32 26.03264 -83.29189 32797 ft 439 kts 68°
2026-05-04 02:33 26.04290 -83.25990 32091 ft 440 kts 69°
2026-05-04 02:33 26.05233 -83.22744 31324 ft 443 kts 71°
2026-05-04 02:33 26.06133 -83.19446 30484 ft 447 kts 70°
2026-05-04 02:33 26.07042 -83.16130 29476 ft 451 kts 70°
2026-05-04 02:34 26.07975 -83.12777 28310 ft 457 kts 71°
2026-05-04 02:34 26.08926 -83.09376 27050 ft 464 kts 71°
2026-05-04 02:34 26.09893 -83.05919 25690 ft 472 kts 71°
2026-05-04 02:34 26.10876 -83.02413 24410 ft 477 kts 72°
2026-05-04 02:35 26.11857 -82.98918 23603 ft 470 kts 72°
2026-05-04 02:35 26.12820 -82.95475 22893 ft 464 kts 72°
2026-05-04 02:35 26.13776 -82.92059 22215 ft 460 kts 72°
2026-05-04 02:35 26.14721 -82.88666 21544 ft 458 kts 72°
2026-05-04 02:36 26.15662 -82.85292 20917 ft 455 kts 72°
2026-05-04 02:36 26.16603 -82.81935 20278 ft 452 kts 72°
2026-05-04 02:36 26.17529 -82.78610 19657 ft 448 kts 72°
2026-05-04 02:36 26.18447 -82.75314 19042 ft 444 kts 73°
2026-05-04 02:37 26.19354 -82.72042 18415 ft 441 kts 73°
2026-05-04 02:37 26.20254 -82.68796 17654 ft 437 kts 72°
2026-05-04 02:37 26.21138 -82.65610 17117 ft 427 kts 72°
2026-05-04 02:37 26.22008 -82.62474 16522 ft 420 kts 72°
2026-05-04 02:38 26.22864 -82.59385 15954 ft 415 kts 72°
2026-05-04 02:38 26.23708 -82.56338 15384 ft 410 kts 72°
2026-05-04 02:38 26.24544 -82.53320 14815 ft 405 kts 72°
2026-05-04 02:38 26.25366 -82.50346 14259 ft 398 kts 72°
2026-05-04 02:39 26.26173 -82.47428 13679 ft 388 kts 72°
2026-05-04 02:39 26.26948 -82.44621 13150 ft 370 kts 72°
2026-05-04 02:39 26.27687 -82.41939 12668 ft 354 kts 72°
2026-05-04 02:39 26.28398 -82.39363 12186 ft 341 kts 72°
2026-05-04 02:40 26.29083 -82.36877 11725 ft 331 kts 72°
2026-05-04 02:40 26.29750 -82.34457 11278 ft 325 kts 73°
2026-05-04 02:40 26.30409 -82.32059 10828 ft 323 kts 72°
2026-05-04 02:40 26.31066 -82.29667 10383 ft 321 kts 73°
2026-05-04 02:41 26.31717 -82.27295 9928 ft 319 kts 73°
2026-05-04 02:41 26.32363 -82.24944 9480 ft 314 kts 73°
2026-05-04 02:41 26.32999 -82.22623 9055 ft 312 kts 72°
2026-05-04 02:41 26.33629 -82.20325 8621 ft 309 kts 72°
2026-05-04 02:42 26.34255 -82.18040 8203 ft 308 kts 72°
2026-05-04 02:42 26.34882 -82.15754 7774 ft 309 kts 72°
2026-05-04 02:42 26.35505 -82.13476 7324 ft 304 kts 72°
2026-05-04 02:42 26.36116 -82.11239 6935 ft 299 kts 72°
2026-05-04 02:43 26.36720 -82.09029 6520 ft 297 kts 72°
2026-05-04 02:43 26.37318 -82.06845 6106 ft 292 kts 71°
2026-05-04 02:43 26.37919 -82.04705 5752 ft 285 kts 69°
2026-05-04 02:43 26.38739 -82.02726 5369 ft 280 kts 59°
2026-05-04 02:44 26.39678 -82.00844 4958 ft 275 kts 59°
2026-05-04 02:44 26.40574 -81.98994 4581 ft 267 kts 60°
2026-05-04 02:44 26.41409 -81.97184 4243 ft 259 kts 61°
2026-05-04 02:44 26.42211 -81.95409 3864 ft 252 kts 62°
2026-05-04 02:45 26.42981 -81.93683 3517 ft 245 kts 62°
2026-05-04 02:45 26.43726 -81.92006 3195 ft 239 kts 63°
2026-05-04 02:45 26.44449 -81.90375 2864 ft 226 kts 64°
2026-05-04 02:45 26.45120 -81.88859 2562 ft 211 kts 64°
2026-05-04 02:46 26.45726 -81.87397 2299 ft 205 kts 64°
2026-05-04 02:46 26.46453 -81.86078 2067 ft 189 kts 53°
2026-05-04 02:46 26.47257 -81.85012 1786 ft 173 kts 51°
2026-05-04 02:46 26.47987 -81.84056 1569 ft 151 kts 52°
2026-05-04 02:47 26.48613 -81.83185 1372 ft 137 kts 53°
2026-05-04 02:47 26.48986 -81.82630 1237 ft 134 kts 54°
2026-05-04 02:47 26.49532 -81.81797 1077 ft 130 kts 54°
2026-05-04 02:47 26.50065 -81.80975 932 ft 131 kts 54°
2026-05-04 02:48 26.50584 -81.80151 772 ft 131 kts 54°
2026-05-04 02:48 26.51135 -81.79309 676 ft 135 kts 54°
2026-05-04 02:48 26.51702 -81.78476 420 ft 134 kts 53°
2026-05-04 02:48 26.52241 -81.77649 248 ft 132 kts 54°
2026-05-04 02:49 26.52773 -81.76817 61 ft 130 kts 53°
2026-05-04 02:49 26.53251 -81.76077 39 ft 103 kts 53°
2026-05-04 02:49 26.53469 -81.75719 42 ft 18 kts 70°
2026-05-04 02:49 26.53480 -81.75600 42 ft 9 kts 88°
2026-05-04 02:50 26.53481 -81.75555 42 ft 0 kts 89°
2026-05-04 02:50 26.53481 -81.75553 42 ft 0 kts 89°
2026-05-04 02:51 26.53481 -81.75544 42 ft 6 kts 92°
2026-05-04 02:51 26.53452 -81.75485 42 ft 13 kts 140°
2026-05-04 02:52 26.53366 -81.75414 42 ft 17 kts 144°
2026-05-04 02:52 26.53261 -81.75331 42 ft 20 kts 145°
2026-05-04 02:52 26.53150 -81.75241 42 ft 19 kts 144°
2026-05-04 02:52 26.53049 -81.75159 42 ft 20 kts 144°
2026-05-04 02:53 26.52969 -81.75139 42 ft 9 kts 213°
2026-05-04 02:53 26.52933 -81.75166 40 ft 4 kts 214°
2026-05-04 02:53 26.52922 -81.75174 42 ft 0 kts 214°